Location: White Rock
(35.8256°N, 106.1876°W)
Time: 20:10:21
(UTC-06:00)

Envisat - Visible Passes

Search period start: 24 September 2018 00:00
Search period end: 04 October 2018 00:00
Orbit: 764 x 766 km, 98.2° (Epoch: 23 September)

Date Brightness Start Highest point End Pass type
(mag) Time Alt. Az. Time Alt. Az. Time Alt. Az.
24 Sep 2.9 19:59:06 10° SSE 20:04:07 70° ENE 20:09:10 10° N visible
24 Sep 6.0 21:42:16 10° WSW 21:43:34 11° W 21:44:53 10° WNW visible
25 Sep 3.8 19:23:13 10° SE 19:27:34 30° ENE 19:31:57 10° N visible
25 Sep 5.0 21:02:16 10° SSW 21:06:31 27° W 21:10:47 10° NW visible
26 Sep 3.4 20:24:39 10° S 20:29:40 64° W 20:34:42 10° NNW visible
27 Sep 3.1 19:48:04 10° SSE 19:52:59 54° ENE 19:57:55 10° N visible
27 Sep 5.8 21:29:32 10° SW 21:32:17 15° W 21:35:03 10° WNW visible
28 Sep 4.1 19:12:31 10° ESE 19:16:30 24° ENE 19:20:29 10° NNE visible
28 Sep 4.5 20:50:42 10° SSW 20:55:17 34° W 20:59:54 10° NNW visible
29 Sep 3.0 20:13:24 10° S 20:18:28 83° WSW 20:23:34 10° NNW visible
30 Sep 3.4 19:37:07 10° SE 19:41:51 42° ENE 19:46:37 10° N visible
30 Sep 5.5 21:17:29 10° SW 21:21:00 19° W 21:24:34 10° NW visible
01 Oct 4.0 20:39:15 10° S 20:44:04 44° W 20:48:55 10° NNW visible
02 Oct 2.9 20:02:16 10° SSE 20:07:19 77° ENE 20:12:23 10° N visible
03 Oct 3.7 19:26:16 10° SE 19:30:45 33° ENE 19:35:15 10° N visible
03 Oct 5.1 21:05:41 10° SSW 21:09:45 24° W 21:13:51 10° NW visible
